MDT,Max TemperatureF,Mean TemperatureF,Min TemperatureF,Max Dew PointF,MeanDew PointF,Min DewpointF,Max Humidity, Mean Humidity, Min Humidity, Max Sea Level PressureIn, Mean Sea Level PressureIn, Min Sea Level PressureIn, Max VisibilityMiles, Mean VisibilityMiles, Min VisibilityMiles, Max Wind SpeedMPH, Mean Wind SpeedMPH, Max Gust SpeedMPH,PrecipitationIn, CloudCover, Events, WindDirDegrees
2011-10-1,76,54,32,32,28,24,83,48,14,30.32,30.28,30.21,10,10,10,14,6,20,0.00,1,,212
2011-10-2,67,53,39,45,37,32,85,58,29,30.30,30.27,30.22,10,10,3,20,3,30,0.00,4,Rain,308
2011-10-3,70,50,31,43,35,30,100,66,23,30.33,30.26,30.15,10,10,10,12,5,31,0.00,1,Rain,225
2011-10-4,64,52,41,46,40,32,93,66,32,30.14,30.05,29.95,10,10,10,16,8,32,0.00,5,Rain-Thunderstorm,145
2011-10-5,56,50,43,44,41,36,100,79,47,29.93,29.78,29.65,10,10,5,20,9,26,0.00,8,Rain,137
2011-10-6,41,36,31,41,37,30,100,95,87,29.68,29.58,29.50,10,9,1,24,7,31,0.00,7,Rain-Snow-Thunderstorm,116
2011-10-7,37,32,27,34,31,28,100,90,79,30.01,29.93,29.72,10,9,1,17,4,23,0.00,8,Rain-Snow,302
2011-10-8,44,38,33,37,33,31,99,87,64,30.27,30.12,29.97,10,10,5,16,8,,0.00,7,Rain,60
2011-10-9,41,37,33,36,34,32,100,90,68,30.29,30.21,30.09,10,9,3,6,4,,0.00,8,Rain,103
2011-10-10,50,39,28,34,30,24,100,70,37,30.07,30.02,29.95,10,10,10,10,3,16,0.00,4,,256
2011-10-11,50,42,34,41,37,34,100,88,56,30.06,29.98,29.95,10,10,5,22,3,33,0.00,7,Rain,264
2011-10-12,52,40,29,32,29,22,100,70,32,30.27,30.22,30.12,10,10,10,17,8,20,0.00,1,,312
2011-10-13,57,41,25,32,27,24,96,66,32,30.25,30.19,30.13,10,10,10,14,7,22,0.00,4,,304
2011-10-14,61,44,28,35,32,28,100,69,32,30.19,30.15,30.13,10,10,10,22,6,29,0.00,5,,287
2011-10-15,65,46,26,37,31,27,100,70,24,30.19,30.15,30.09,10,10,10,21,4,28,0.00,0,,286
2011-10-16,62,45,28,36,32,28,100,69,32,30.17,30.13,30.07,10,10,10,20,5,28,0.00,2,Rain,275
2011-10-17,47,40,32,38,27,16,100,67,35,30.37,30.25,30.06,10,10,7,26,12,33,0.00,1,Rain,297
2011-10-18,52,39,26,24,22,17,89,59,26,30.46,30.41,30.36,10,10,10,14,5,,0.00,1,,333
2011-10-19,57,38,18,26,20,12,99,63,18,30.35,30.18,30.05,10,10,10,9,4,,0.00,0,,284
2011-10-20,57,42,27,29,25,23,88,56,27,30.22,30.16,30.09,10,10,10,15,8,21,0.00,0,,305
2011-10-21,53,38,24,36,29,24,99,77,41,30.32,30.28,30.24,10,10,10,18,6,23,0.00,3,,303
2011-10-22,56,40,24,35,28,24,100,71,28,30.34,30.29,30.27,10,10,10,16,6,23,0.00,0,,292
2011-10-23,59,40,21,33,27,21,100,71,25,30.33,30.28,30.21,10,10,10,17,4,24,0.00,2,,293
2011-10-24,58,40,21,30,25,21,100,69,27,30.22,30.10,29.97,10,10,10,12,4,,0.00,1,,275
2011-10-25,42,32,23,33,22,11,94,63,31,30.11,30.09,30.06,10,10,10,17,8,,0.00,3,,297
2011-10-26,37,30,19,24,15,3,99,62,24,30.21,30.17,30.13,10,9,2,13,3,22,0.00,4,Snow,294
2011-10-27,43,29,15,12,8,2,73,43,18,30.17,30.13,30.09,10,10,10,20,9,29,0.00,1,,300
2011-10-28,45,28,11,16,10,7,88,55,22,30.34,30.28,30.22,10,10,10,9,5,16,0.00,0,,291
2011-10-29,49,31,13,22,17,11,95,61,32,30.21,30.15,30.11,10,10,10,28,8,36,0.00,2,,294
2011-10-30,55,37,19,27,22,18,97,63,26,30.31,30.26,30.23,10,10,10,23,8,29,0.00,1,,301
2011-10-31,51,36,20,32,25,19,98,71,43,30.25,30.15,30.07,10,10,10,16,5,24,0.00,5,Rain,299